FW4151 Weather Reports


time (UTC)temp
F
wind
direction
speed
knots
gust
knots
rain 1hr
in
rain 24hr
in
rain mn
in
humidity
%
barometer
mb
20260505001533 61 0.0 0.0 0.00 0.00 0.00 49 1005.6
20260505000034 63 0.0 0.0 0.00 0.00 0.00 48 1005.5
20260504234541 64 0.0 0.0 0.00 0.00 0.00 46 1005.4
20260504233034 65 0.0 0.0 0.00 0.00 0.00 44 1005.2
20260504231541 66 0.0 0.0 0.00 0.00 0.00 41 1005.3
20260504230029 68 0.0 0.0 0.00 0.00 0.00 40 1005.1
20260504224529 68 0.0 0.0 0.00 0.00 0.00 40 1005.1
20260504223028 69 0.0 0.0 0.00 0.00 0.00 39 1005.1
20260504221527 69 0.0 0.0 0.00 0.00 0.00 38 1005.1
20260504220026 69 0.0 0.0 0.00 0.00 0.00 39 1005.1
20260504214533 68 0.0 0.0 0.00 0.00 0.00 39 1005.0
20260504213026 68 0.0 0.0 0.00 0.00 0.00 38 1005.2
20260504211521 68 0.0 0.0 0.00 0.00 0.00 39 1005.4
20260504210019 68 0.0 0.0 0.00 0.00 0.00 39 1005.5
20260504204537 68 0.0 0.0 0.00 0.00 0.00 37 1005.8
20260504203015 68 0.0 0.0 0.00 0.00 0.00 36 1005.9
20260504201513 68 0.0 0.0 0.00 0.00 0.00 39 1006.1
20260504200014 68 0.0 0.0 0.00 0.00 0.00 40 1006.4
20260504194512 68 0.0 0.0 0.00 0.00 0.00 36 1006.5
20260504193017 68 0.0 0.0 0.00 0.00 0.00 37 1006.7
20260504191508 68 0.0 0.0 0.00 0.00 0.00 38 1006.8
20260504190010 68 0.0 0.0 0.00 0.00 0.00 38 1006.7
20260504184504 68 0.0 0.0 0.00 0.00 0.00 40 1007.0
20260504183002 67 0.0 0.0 0.00 0.00 0.00 39 1007.1
20260504181559 66 0.0 0.0 0.00 0.00 0.00 41 1007.2
20260504180058 66 0.0 0.0 0.00 0.00 0.00 41 1007.3
20260504174556 65 0.0 0.0 0.00 0.00 0.00 40 1007.5
20260504173055 66 0.0 0.0 0.00 0.00 0.00 40 1007.7
20260504171555 66 0.0 0.0 0.00 0.00 0.00 40 1007.7
20260504081526 41 0.0 0.0 0.00 0.00 0.00 64 1010.7
20260504044604 45 0.0 0.0 0.00 0.00 0.00 58 1010.9
20260504043059 45 0.0 0.0 0.00 0.00 0.00 57 1011.0
20260504041555 44 0.0 0.0 0.00 0.00 0.00 59 1010.9
20260504040052 44 0.0 0.0 0.00 0.00 0.00 61 1010.9
20260504034652 44 0.0 0.0 0.00 0.00 0.00 62 1011.0
20260504033051 45 0.0 0.0 0.00 0.00 0.00 61 1010.9
20260504031551 45 0.0 0.0 0.00 0.00 0.00 59 1011.0
20260504030049 46 0.0 0.0 0.00 0.00 0.00 58 1011.0
20260504024549 47 0.0 0.0 0.00 0.00 0.00 56 1011.2
20260504023049 47 0.0 0.0 0.00 0.00 0.00 56 1011.3
20260504021549 47 0.0 0.0 0.00 0.00 0.00 56 1011.4
20260504020047 47 0.0 0.0 0.00 0.00 0.00 54 1011.3
20260504014600 47 0.0 0.0 0.00 0.00 0.00 53 1011.3
20260504013051 47 0.0 0.0 0.00 0.00 0.00 56 1011.1
20260504011547 48 0.0 0.0 0.00 0.00 0.00 53 1011.1
20260504010048 48 0.0 0.0 0.00 0.00 0.00 51 1011.0
20260504004547 48 0.0 0.0 0.00 0.00 0.00 51 1010.8
20260504003050 49 0.0 0.0 0.00 0.00 0.00 51 1010.7